Location: Serpentine
(32.3617°S, 115.9768°E)
Time: 04:50:52
(UTC+08:00)

ISS - Visible Passes

Search period start: 14 April 2021 00:00
Search period end: 24 April 2021 00:00
Orbit: 418 x 422 km, 51.6° (Epoch: 13 April)

Date Brightness Start Highest point End Pass type
(mag) Time Alt. Az. Time Alt. Az. Time Alt. Az.
14 Apr -3.4 05:13:07 46° NW 05:13:07 46° NW 05:16:12 10° NNE visible
15 Apr -0.8 04:28:40 13° NE 04:28:40 13° NE 04:29:02 10° NE visible
15 Apr -1.5 19:25:58 10° N 19:26:49 15° N 19:26:49 15° N visible
16 Apr -1.8 18:39:46 10° NNE 18:41:41 14° NE 18:42:18 14° ENE visible
16 Apr -0.5 20:15:00 10° WNW 20:15:19 12° WNW 20:15:19 12° WNW visible
17 Apr -3.6 19:27:28 10° NW 19:30:39 72° W 19:30:39 72° W visible
18 Apr -3.6 18:40:15 10° NNW 18:43:33 53° NE 18:45:50 18° ESE visible
18 Apr -0.3 20:18:33 10° WSW 20:18:51 11° WSW 20:18:51 11° WSW visible
19 Apr -1.7 19:30:19 10° W 19:33:06 23° SW 19:33:54 21° SSW visible
20 Apr -2.5 18:42:28 10° WNW 18:45:40 38° SW 18:48:50 10° SSE visible
22 Apr -1.0 18:46:03 10° WSW 18:48:03 15° SSW 18:50:05 10° S visible
